Location: Gleizolles
(44.4833°N, 6.7667°E)
Time: 13:13:38
(UTC+00:00)

Envisat - Visible Passes

Search period start: 28 February 2021 00:00
Search period end: 10 March 2021 00:00
Orbit: 764 x 766 km, 98.1° (Epoch: 27 February)

Date Brightness Start Highest point End Pass type
(mag) Time Alt. Az. Time Alt. Az. Time Alt. Az.
28 Feb 3.3 05:12:09 10° NNE 05:17:15 74° ESE 05:22:19 10° S visible
01 Mar 4.8 04:35:41 10° NNE 04:40:18 34° E 04:44:52 10° SSE visible
02 Mar 6.0 04:00:03 10° NE 04:03:08 16° E 04:06:12 10° SE visible
03 Mar 3.7 05:00:46 10° NNE 05:05:48 58° E 05:10:48 10° S visible
03 Mar 6.7 17:59:57 10° WSW 18:01:36 11° W 18:03:16 10° WNW visible
04 Mar 5.2 04:24:29 10° NE 04:28:47 27° E 04:33:04 10° SSE visible
05 Mar 6.1 03:49:26 10° ENE 03:51:34 12° E 03:53:41 10° ESE visible
05 Mar 3.0 05:26:07 10° NNE 05:31:13 83° WNW 05:36:18 10° SSW visible
06 Mar 4.2 04:49:26 10° NNE 04:54:20 46° E 04:59:12 10° S visible
07 Mar 5.6 04:13:22 10° NE 04:17:15 22° E 04:21:08 10° SE visible
08 Mar 3.2 05:14:41 10° NNE 05:19:48 79° ESE 05:24:52 10° S visible
09 Mar 4.7 04:38:10 10° NNE 04:42:51 36° E 04:47:31 10° SSE visible
